{"data":{"norad_id":64849,"intl_designator":"2025-152H","name":"STARLINK-34756","alt_names":[],"object_type":"PAYLOAD","status":"ACTIVE","operator":null,"country":"US","launch_date":"2025-07-19","launch_site_code":"AFWTR","launch_vehicle":null,"mission":null,"orbit_class":"UNKNOWN","rcs_meters":null,"size_class":null,"mass_kg":null,"dimensions":null,"purposes":["comms"],"wikipedia_slug":null,"has_3d_model":false,"image_url":null,"decayed_at":null,"tle_current":{"epoch":"2026-05-25T02:08:30.100128Z","epoch_age_seconds":70830,"freshness":"FRESH","line1":"1 64849U 25152H   26145.08923727  .00002723  00000+0  19266-3 0  9992","line2":"2 64849  97.4530   0.4543 0001618  80.7186 279.4224 15.05660964 46915","mean_motion":15.05660964,"eccentricity":0.0001618,"inclination_deg":97.453,"raan_deg":0.4543,"arg_perigee_deg":80.7186,"mean_anomaly_deg":279.4224,"bstar":0.00019266,"rev_number":4691,"period_min":95.639060481082,"perigee_km":548.35663523031,"apogee_km":550.59841129004,"semimajor_km":6927.6145232602,"source":"CELESTRAK","updated_at":"2026-05-25T13:38:20.613057Z"}}}